Hourly Data Report for October 03, 2017

All times are specified in Local Standard Time (LST). Add 1 hour to adjust for Daylight Saving Time where and when it is observed.

TERRACE A
BRITISH COLUMBIA

54°28'07.000" N
128°34'42.000" W
217.30 m
1068134
71951
YXT

Download Data

Hourly Data (October 2017)
Hourly Data Report for October 3, 2017
Temp Definition
°C
Dew Point Temp Definition
°C
Rel Hum Definition
%
Wind Dir Definition
10's deg

Wind Spd Definition
km/h
Visibility Definition
km
Stn Press Definition
kPa
Hmdx Definition


Wind Chill Definition


Weather Definition


TIME
00:00 Legend Double Dagger 4.3 1.6 82 2 16 32.2 100.32     LegendNANA
01:00 Legend Double Dagger 4.4 1.8 84 36 21 32.2 100.32     Clear
02:00 Legend Double Dagger 3.6 1.5 86 36 19 32.2 100.31     LegendNANA
03:00 Legend Double Dagger 2.3 0.8 89 1 8 32.2 100.34     LegendNANA
04:00 Legend Double Dagger 2.6 0.7 88 1 9 32.2 100.29     Mainly Clear
05:00 Legend Double Dagger 1.8 0.0 88 1 11 32.2 100.34     LegendNANA
06:00 Legend Double Dagger 2.2 0.4 88 35 14 32.2 100.34     LegendNANA
07:00 Legend Double Dagger 1.7 0.3 90 36 10 32.2 100.32     Mostly Cloudy
08:00 Legend Double Dagger 3.0 0.5 84 2 12 32.2 100.35     LegendNANA
09:00 Legend Double Dagger 3.9 0.9 81 2 13 32.2 100.35     LegendNANA
10:00 Legend Double Dagger 5.6 1.3 74 2 4 32.2 100.31     Mostly Cloudy
11:00 Legend Double Dagger 7.1 1.6 68 36 1 32.2 100.28     LegendNANA
12:00 Legend Double Dagger 9.3 2.3 61 27 5 32.2 100.26     LegendNANA
13:00 Legend Double Dagger 11.3 2.6 55 23 4 32.2 100.22     Mostly Cloudy
14:00 Legend Double Dagger 11.8 1.9 50 18 3 32.2 100.19     LegendNANA
15:00 Legend Double Dagger 12.5 2.3 50 36 3 32.2 100.14     LegendNANA
16:00 Legend Double Dagger 12.9 1.8 47 2 7 32.2 100.11     Mostly Cloudy
17:00 Legend Double Dagger 12.3 2.5 51 3 10 32.2 100.06     LegendNANA
18:00 Legend Double Dagger 9.5 3.8 67 2 10 32.2 100.03     LegendNANA
19:00 Legend Double Dagger 9.1 3.3 67 2 16 32.2 100.03     Mainly Clear
20:00 Legend Double Dagger 7.6 3.7 76 2 14 32.2 100.02     LegendNANA
21:00 Legend Double Dagger 7.0 3.6 79 36 9 32.2 100.03     LegendNANA
22:00 Legend Double Dagger 5.5 3.8 88 1 15 32.2 100.02     Mainly Clear
23:00 Legend Double Dagger 4.4 3.2 92 36 8 32.2 100.01     LegendNANA

Notes on Data Quality.

Legend

  • E = Estimated
  • M = Missing
  • NA = Not Available
  • ‡ = Partner data that is not subject to review by the National Climate Archives
Date modified: